Location: Newark
(51.8900°N, 2.0780°W)
Time: 20:14:03
(UTC+00:00)

Envisat - Pass Details

Date: 30 November 2019
Orbit: 764 x 766 km, 98.1° (Epoch: 15 December)

Event Time Altitude Azimuth Distance (km) Brightness Sun altitude
Rises 17:09:24 0° 143° (SE) 3,224 6.1 -9.9°
Reaches altitude 10° 17:11:47 10° 136° (SE) 2,302 5.3 -10.3°
Maximum altitude 17:16:34 44° 66° (ENE) 1,061 3.3 -11.0°
Drops below altitude 10° 17:21:23 10° 356° (N) 2,316 5.3 -11.6°
Sets 17:23:46 0° 350° (N) 3,246 6.1 -12.0°
